星链-37313(STARLINK-37313)

导读

STARLINK-37313(NORAD编号68790)是美国SpaceX公司星链(Starlink)星座的一颗低轨互联网通信卫星,属于第二代星链组网卫星,旨在为全球提供高速低延迟宽带互联网服务。 该卫星运行在近地轨道,采用成熟的星链技术设计,配备可展开太阳能阵列与空间激光互连设备,支持动态波束调整,提升网络吞吐量与覆盖稳定性。它由SpaceX猎鹰9号火箭发射入轨,补充星链星座的在轨容量,服务全球个人用户、企业及偏远地区网络接入需求,是星链大规模星座部署中的组成单元。

Basic Information
目录编号:
68790
目录名称:
STARLINK-37313
国际标识:
2026-086AA
轨道中心:
EARTH
卫星名称:
星链-37313
卫星全名:
星链-37313(STARLINK-37313)
卫星状态:
在轨 (已飞行138 天)
发射日期:
2026-04-19 UTC
国别 :
美国 (US)
星等 :
--
Orbit Information
数据来源 国际轨道数据 AOE轨道数据
星历时间 2026-09-04T00:25:18+0800
13小时前
查看轨道信息
2026-09-03T23:00:00+0800
14小时前
查看轨道信息
半长轴 6843.685km 6843.715km
偏心率 0.0001065 0.0001037
轨道倾角 97.285° 97.287°
近地点辐角 118.117° 86.308°
升交点赤经 283.204° 283.146°
平近点角 242.018° 307.033°
近地点 464.819km 464.868km
远地点 466.277km 466.288km
周期 93.906分钟 93.907分钟
每日圈数 15.334436 15.334334
Detailed Information
固有亮度:
5
最大亮度:
2.5
卫星平台:
Starlink V1.0
覆盖范围:
全球
运营商:
太空探索技术公司
运营商所在国:
美国
制造商(研发单位):
太空探索技术公司
制造商所在国:
美国
使用方式:
暂无
Satellite Introduction
Starlink 计划是 SpaceX 推出的全球卫星互联网项目,通过发射低轨道卫星,为全球尤其是偏远地区提供高速、低延迟的互联网服务。自 2019 年起,Starlink 已部署数千颗卫星,旨在缩小全球数字鸿沟,推动互联网普及。该项目还为军事、航空等行业提供通信支持,带来广泛经济效益。
2D Orbit Map
3D Orbit Map
Orbit Altitude Analysis Chart
Orbit Inclination Analysis Chart
Orbit Comprehensive Analysis Chart
View Comprehensive Chart
Conjunction Data List
Event ID Objects TCA Miss Dist (km) Collision Risk Probability Collision Risk Index (CRI) Action
CDM_260827-201904-299206-879022
2026-08-27T
20:19:42+0000
1.848 km
极远距离
3.046737E-6 低风险 0.45
CDM_260827-210604-299206-879022
2026-08-27T
21:06:41+0000
2.270 km
极远距离
1.842155E-6 低风险 0.4
CDM_260903-114706-370406-879022
2026-09-03T
11:47:32+0000
2.590 km
极远距离
1.646268E-6 低风险 0.39
CDM_260904-181106-533106-879021
2026-09-04T
18:11:14+0000
2.651 km
极远距离
1.58367E-6 低风险 0.39
CDM_260904-115405-883006-879021
2026-09-04T
11:54:59+0000
2.675 km
极远距离
1.561061E-6 低风险 0.39
CDM_260904-163706-223306-879021
2026-09-04T
16:37:29+0000
2.741 km
极远距离
1.505089E-6 低风险 0.39
CDM_260904-070604-869606-879021
2026-09-04T
07:06:16+0000
2.369 km
极远距离
1.385287E-6 低风险 0.38
CDM_260827-183605-377506-879021
2026-08-27T
18:36:50+0000
2.958 km
极远距离
1.016991E-6 低风险 0.35